Flag for Equatorial Guinea Weather past 2 weeks in Malabo, Equatorial Guinea

Now
86 °F

Partly sunny.


Feels Like: 95 °F
Forecast: 75 / 83 °F
Wind: 1 mph from North

Location: Malabo/Fernando Poo


UV Index: 3 (Moderate)

Visibility: N/A


Pressure: 29.86 "Hg

Humidity: 70%

Dew point: 75 °F

Location of MalaboLocation

Historic Weather in Malabo

°F

Malabo temperature yesterday

Maximum temperature yesterday: 90 °F (at 12:00 PM)
Minimum temperature yesterday: 73 °F (at 4:00 AM)
Average temperature yesterday: 81 °F

Past Weeks' High & Low Weather Summary

 TemperatureHumidityPressure
High90 °F (Apr 12, 1:00 PM)94% (Apr 11, 1:00 AM)29.98 "Hg (Apr 11, 1:00 AM)
Low72 °F (Apr 16, 5:00 AM)59% (Apr 12, 12:00 PM)29.74 "Hg (Apr 12, 4:00 PM)
Average80 °F82%29.84 "Hg
* Reported Apr 9 1:00 PM — Apr 24 8:00 AM, Malabo, Weather by CustomWeather, © 2014

Note: Actual official high and low records may vary slightly from our data, if they occured in-between our weather recording intervals... More about our weather records

Advertising

Historic Weather Conditions — Data for Previous 24 hours

 ConditionsComfort  
Time TempWeatherWind HumidityBarometerVisibility
8:00 AM
Apr 24
81 °FPartly sunny.No wind84%29.83 "HgN/A
7:00 AM77 °FPartly sunny.No wind94%29.83 "HgN/A
6:00 AM77 °FWarm.1 mph89%29.80 "HgN/A
5:00 AM77 °FThunderstorms. Passing clouds.No wind89%29.80 "HgN/A
4:00 AM77 °FThunderstorms. Passing clouds.No wind94%29.80 "HgN/A
3:00 AM77 °FThunderstorms. Passing clouds.No wind94%29.83 "HgN/A
2:30 AM77 °FThunderstorms. Partly cloudy.No wind94%29.83 "Hg5 mi
2:00 AM77 °FThunderstorms. Partly cloudy.3 mph94%29.83 "Hg5 mi
1:00 AM77 °FThunderstorms. Passing clouds.2 mph94%29.86 "HgN/A
12:00 AM79 °FThunderstorms. Passing clouds.2 mph84%29.89 "HgN/A
11:00 PM
Apr 23
79 °FPassing clouds.No wind84%29.86 "HgN/A
9:00 PM79 °FPassing clouds.No wind89%29.86 "HgN/A
8:00 PM79 °FPassing clouds.No wind89%29.83 "HgN/A
7:00 PM81 °FPassing clouds.3 mph84%29.83 "HgN/A
6:00 PM82 °FPartly sunny.6 mph79%29.80 "HgN/A
5:00 PM84 °FPartly sunny.7 mph74%29.80 "HgN/A
4:00 PM86 °FPartly sunny.7 mph70%29.83 "HgN/A
3:00 PM88 °FPartly sunny.2 mph66%29.80 "HgN/A
2:00 PM86 °FPartly sunny.9 mph75%29.83 "HgN/A
1:00 PM90 °FPartly sunny.9 mph59%29.86 "HgN/A
12:00 PM90 °FPartly sunny.7 mph59%29.86 "HgN/A
11:00 AM88 °FPartly sunny.7 mph62%29.92 "HgN/A
10:00 AM82 °FBroken clouds.5 mph84%29.89 "HgN/A
9:00 AM81 °FBroken clouds.7 mph79%29.89 "HgN/A
Weather by CustomWeather, © 2014

See weather overview